Location: *
(32.8140°S, 174.6161°E)
Time: 03:02:07
(UTC+00:00)

COSMOS 2428 - Pass Details

Date: 10 December 2019
Orbit: 844 x 858 km, 70.9° (Epoch: 20 January)

Event Time Altitude Azimuth Distance (km) Brightness Sun altitude
Exits shadow 15:41:35 - 9° (N) 3,318 5.5 -15.5°
Reaches altitude 10° 15:44:02 10° 19° (NNE) 2,489 4.9 -15.1°
Maximum altitude 15:48:54 29° 78° (ENE) 1,521 4.4 -14.3°
Drops below altitude 10° 15:53:48 10° 136° (SE) 2,510 6.6 -13.5°
Sets 15:56:33 0° 146° (SE) 3,452 7.4 -13.1°
